QPF
0.00 0.00 0.00 0.01 0.01 0.00 0.00 0.00 0.00 0.00 0.00 0.00 0.00 0.00 0.00 0.00 0.00 0.00 0.00 0.00 0.00 0.00 0.00 0.00 0.00 0.00 0.01 0.02 0.00 0.00 0.00 0.00 0.00 0.00 0.00 0.00 0.00 0.00 0.00 0.00 0.00 0.00 0.00
0.00 0.00 0.00 0.00 0.00 0.00 0.00 0.00 0.00 0.00 0.00 0.00 0.00 0.00 0.00 0.00 0.00 0.00 0.00 0.00 0.00 0.00 0.00 0.00 0.00 0.00 0.00 0.00 0.00 0.00 0.00 0.00 0.00 0.00 0.00 0.00 0.00 0.00 0.00 0.00 0.00 0.00 0.00
0.00 0.00 0.00 0.00 0.00 0.00 0.00 0.00 0.00 0.00 0.00 0.00 0.00 0.00 0.00 0.00 0.00 0.00 0.00 0.00 0.00 0.00 0.00 0.00 0.00 0.00 0.00 0.00 0.00 0.00 0.00 0.00 0.00 0.00 0.00 0.00 0.00 0.00 0.00 0.00 0.00 0.00 0.00
0.00 0.00 0.00 0.00 0.00 0.00 0.00 0.00 0.00 0.00 0.00 0.00 0.00 0.00 0.00 0.00 0.00 0.00 0.00 0.00 0.00 0.00 0.00 0.00 0.00 0.00 0.00 0.00 0.00 0.00 0.00 0.00 0.00 0.00 0.00 0.00 0.00 0.00 0.00 0.00 0.00 0.00 0.00
0.00 0.00 0.00 0.00 0.00 0.00 0.00 0.00 0.00 0.00 0.00 0.00 0.00 0.00 0.00 0.01 0.01 0.00 0.00 0.00 0.00 0.00 0.00 0.00 0.00 0.00 0.00 0.00 0.00 0.00 0.00 0.00 0.00 0.00 0.00 0.00 0.00 0.00 0.00 0.00 0.00 0.00 0.00
0.00 0.00 0.00 0.00 0.00 0.00 0.00 0.00 0.00 0.00 0.00 0.00 0.00 0.00 0.00 0.01 0.01 0.01 0.00 0.00 0.00 0.00 0.00 0.00 0.00 0.00 0.00 0.00 0.00 0.00 0.00 0.00 0.00 0.00 0.00 0.00 0.00 0.00 0.00 0.00 0.00 0.00 0.00
0.00 0.00 0.00 0.00 0.00 0.00 0.00 0.00 0.00 0.00 0.00 0.00 0.00 0.00 0.00 0.00 0.01 0.02 0.00 0.00 0.00 0.00 0.00 0.00 0.00 0.00 0.00 0.00 0.00 0.00 0.00 0.00 0.00 0.00 0.00 0.00 0.00 0.00 0.00 0.00 0.00 0.00 0.00
0.00 0.00 0.00 0.00 0.00 0.00 0.00 0.00 0.00 0.00 0.00 0.00 0.00 0.00 0.00 0.00 0.00 0.01 0.00 0.00 0.00 0.00 0.00 0.00 0.00 0.00 0.00 0.00 0.00 0.00 0.00 0.00 0.00 0.00 0.00 0.00 0.00 0.00 0.00 0.00 0.00 0.00 0.00
0.00 0.00 0.00 0.00 0.00 0.00 0.00 0.00 0.00 0.00 0.00 0.00 0.00 0.00 0.00 0.00 0.00 0.00 0.00 0.00 0.00 0.00 0.00 0.00 0.00 0.00 0.00 0.00 0.00 0.00 0.00 0.00 0.00 0.00 0.00 0.00 0.00 0.00 0.00 0.00 0.00 0.00 0.00
0.00 0.00 0.00 0.00 0.00 0.00 0.00 0.00 0.00 0.00 0.00 0.00 0.00 0.00 0.00 0.00 0.00 0.00 0.00 0.00 0.00 0.00 0.00 0.00 0.00 0.00 0.00 0.00 0.00 0.00 0.00 0.00 0.00 0.00 0.00 0.00 0.00 0.00 0.00 0.00 0.00 0.00 0.00
0.00 0.00 0.00 0.00 0.00 0.00 0.00 0.00 0.00 0.00 0.00 0.00 0.00 0.00 0.00 0.00 0.00 0.00 0.00 0.00 0.00 0.00 0.00 0.00 0.00 0.00 0.00 0.00 0.00 0.00 0.00 0.00 0.00 0.00 0.00 0.00 0.00 0.00 0.00 0.00 0.00 0.01 0.00
0.00 0.00 0.00 0.00 0.00 0.00 0.00 0.00 0.00 0.00 0.00 0.00 0.00 0.00 0.00 0.00 0.00 0.00 0.00 0.00 0.00 0.00 0.00 0.00 0.01 0.01 0.00 0.00 0.00 0.00 0.00 0.00 0.00 0.00 0.00 0.00 0.00 0.00 0.00 0.01 0.02 0.01 0.01
0.00 0.00 0.00 0.00 0.00 0.00 0.00 0.00 0.00 0.00 0.00 0.00 0.00 0.00 0.00 0.00 0.00 0.00 0.00 0.00 0.00 0.00 0.00 0.00 0.00 0.00 0.00 0.00 0.00 0.00 0.00 0.00 0.00 0.00 0.00 0.00 0.00 0.00 0.00 0.00 0.01 0.01 0.01
0.00 0.00 0.00 0.00 0.00 0.00 0.00 0.00 0.00 0.00 0.00 0.00 0.00 0.00 0.00 0.00 0.00 0.00 0.00 0.00 0.00 0.00 0.00 0.00 0.00 0.00 0.00 0.00 0.00 0.00 0.00 0.00 0.00 0.00 0.00 0.00 0.00 0.00 0.00 0.00 0.00 0.00 0.00
0.00 0.00 0.00 0.00 0.00 0.00 0.00 0.00 0.00 0.00 0.00 0.00 0.00 0.00 0.00 0.00 0.00 0.00 0.00 0.00 0.00 0.00 0.00 0.00 0.00 0.00 0.00 0.00 0.00 0.00 0.00 0.00 0.00 0.00 0.00 0.00 0.00 0.00 0.00 0.00 0.00 0.00 0.00
0.00 0.00 0.00 0.00 0.00 0.00 0.00 0.00 0.00 0.00 0.00 0.00 0.00 0.00 0.00 0.00 0.00 0.00 0.00 0.00 0.00 0.00 0.00 0.00 0.00 0.00 0.00 0.00 0.00 0.00 0.00 0.00 0.00 0.00 0.00 0.00 0.00 0.00 0.00 0.00 0.00 0.00 0.00
0.00 0.00 0.00 0.00 0.00 0.00 0.00 0.00 0.00 0.00 0.00 0.00 0.00 0.00 0.00 0.00 0.00 0.00 0.00 0.00 0.00 0.00 0.00 0.00 0.00 0.00 0.00 0.00 0.00 0.00 0.00 0.00 0.00 0.00 0.00 0.00 0.00 0.00 0.00 0.00 0.00 0.00 0.00
0.00 0.00 0.00 0.00 0.00 0.00 0.00 0.00 0.00 0.00 0.00 0.00 0.00 0.00 0.00 0.00 0.00 0.00 0.00 0.00 0.00 0.00 0.00 0.00 0.00 0.00 0.00 0.00 0.00 0.00 0.00 0.00 0.00 0.00 0.00 0.00 0.00 0.00 0.00 0.00 0.00 0.00 0.00
0.00 0.00 0.00 0.00 0.00 0.00 0.00 0.00 0.00 0.00 0.00 0.00 0.00 0.00 0.00 0.00 0.00 0.00 0.00 0.00 0.00 0.00 0.00 0.00 0.00 0.00 0.00 0.00 0.00 0.00 0.00 0.00 0.00 0.00 0.00 0.00 0.00 0.00 0.00 0.00 0.00 0.00 0.00
0.00 0.00 0.00 0.00 0.00 0.00 0.00 0.00 0.00 0.00 0.00 0.00 0.00 0.00 0.00 0.00 0.00 0.00 0.00 0.00 0.00 0.00 0.00 0.00 0.00 0.00 0.00 0.00 0.00 0.00 0.00 0.00 0.00 0.00 0.00 0.00 0.00 0.00 0.00 0.00 0.00 0.00 0.00
0.00 0.00 0.00 0.00 0.00 0.00 0.00 0.00 0.00 0.00 0.00 0.00 0.00 0.00 0.00 0.00 0.00 0.00 0.00 0.00 0.00 0.00 0.00 0.00 0.00 0.00 0.00 0.00 0.00 0.00 0.00 0.00 0.00 0.00 0.00 0.00 0.00 0.00 0.00 0.00 0.00 0.00 0.00
0.00 0.00 0.00 0.00 0.00 0.00 0.00 0.00 0.00 0.00 0.00 0.00 0.00 0.00 0.00 0.00 0.00 0.00 0.00 0.00 0.00 0.00 0.00 0.00 0.00 0.00 0.00 0.00 0.00 0.00 0.00 0.00 0.00 0.00 0.00 0.00 0.00 0.00 0.00 0.00 0.00 0.00 0.00
0.00 0.00 0.00 0.00 0.00 0.00 0.00 0.00 0.00 0.00 0.00 0.00 0.00 0.00 0.00 0.00 0.00 0.00 0.00 0.00 0.00 0.00 0.00 0.00 0.00 0.00 0.00 0.00 0.00 0.00 0.00 0.00 0.00 0.00 0.00 0.00 0.00 0.00 0.00 0.00 0.00 0.00 0.00
0.00 0.00 0.00 0.00 0.00 0.00 0.00 0.00 0.00 0.00 0.00 0.00 0.00 0.00 0.00 0.00 0.00 0.00 0.00 0.00 0.00 0.00 0.00 0.00 0.00 0.00 0.00 0.00 0.00 0.00 0.00 0.00 0.00 0.00 0.00 0.00 0.00 0.00 0.00 0.00 0.00 0.00 0.00
0.00 0.00 0.00 0.00 0.00 0.00 0.00 0.00 0.00 0.00 0.00 0.00 0.00 0.00 0.00 0.00 0.00 0.00 0.00 0.00 0.00 0.00 0.00 0.00 0.00 0.00 0.00 0.00 0.00 0.00 0.00 0.00 0.00 0.00 0.00 0.00 0.00 0.00 0.00 0.00 0.00 0.00 0.00
0.00 0.00 0.00 0.00 0.00 0.00 0.00 0.00 0.00 0.00 0.00 0.00 0.00 0.00 0.00 0.00 0.00 0.00 0.00 0.00 0.00 0.00 0.00 0.00 0.00 0.00 0.00 0.00 0.00 0.00 0.00 0.00 0.00 0.00 0.00 0.00 0.00 0.00 0.00 0.00 0.00 0.00 0.00
MSLP
1010.19 1010.05 1009.94 1010.24 1010.65 1011.05 1011.30 1011.54 1011.83 1011.96 1012.16 1012.23 1012.32 1012.34 1012.48 1012.60 1012.71 1012.86 1012.96 1013.01 1013.04 1013.17 1013.27 1013.18 1013.15 1013.12 1013.03 1013.12 1013.08 1013.21 1013.33 1013.44 1013.50 1013.57 1013.61 1013.57 1013.53 1013.41 1013.20 1013.36 1013.28 1013.47 1013.55
1009.24 1009.79 1009.87 1010.18 1010.56 1011.01 1011.39 1011.60 1011.93 1012.11 1012.23 1012.33 1012.42 1012.52 1012.54 1012.74 1012.89 1012.95 1012.99 1013.05 1013.10 1013.21 1013.43 1013.54 1013.53 1013.48 1013.39 1013.38 1013.39 1013.48 1013.48 1013.47 1013.58 1013.45 1013.58 1013.64 1013.64 1013.54 1013.28 1013.17 1013.20 1013.36 1013.39
1009.30 1009.65 1009.90 1010.16 1010.59 1010.97 1011.38 1011.71 1012.02 1012.23 1012.30 1012.33 1012.49 1012.63 1012.78 1012.75 1012.86 1013.02 1013.08 1013.11 1013.23 1013.29 1013.53 1013.71 1013.69 1013.63 1013.62 1013.54 1013.53 1013.63 1013.56 1013.52 1013.55 1013.47 1013.54 1013.68 1013.74 1013.60 1013.35 1013.13 1013.27 1013.34 1013.32
1009.22 1009.61 1009.90 1010.19 1010.54 1010.96 1011.38 1011.78 1012.10 1012.33 1012.39 1012.45 1012.50 1012.52 1012.71 1012.81 1012.87 1013.03 1013.09 1013.13 1013.23 1013.39 1013.45 1013.68 1013.84 1013.87 1013.80 1013.76 1013.64 1013.65 1013.62 1013.52 1013.48 1013.49 1013.67 1013.71 1013.76 1013.51 1013.17 1013.09 1013.18 1013.29 1013.34
1009.41 1009.60 1009.90 1010.17 1010.57 1010.87 1011.28 1011.67 1012.02 1012.37 1012.47 1012.54 1012.59 1012.69 1012.69 1012.77 1012.83 1012.88 1012.90 1013.09 1013.18 1013.43 1013.48 1013.67 1013.80 1014.02 1013.85 1013.83 1013.68 1013.61 1013.49 1013.50 1013.47 1013.58 1013.76 1013.78 1013.76 1013.57 1013.13 1012.91 1013.01 1013.05 1013.11
1009.46 1009.61 1009.90 1010.13 1010.53 1010.88 1011.20 1011.54 1011.93 1012.23 1012.46 1012.51 1012.59 1012.75 1012.79 1012.76 1012.77 1012.82 1012.78 1012.95 1013.29 1013.45 1013.51 1013.62 1013.77 1013.80 1013.81 1013.72 1013.64 1013.48 1013.41 1013.43 1013.47 1013.65 1013.72 1013.70 1013.62 1013.45 1013.20 1012.88 1012.84 1012.97 1013.01
1009.54 1009.66 1009.88 1010.16 1010.45 1010.84 1011.18 1011.51 1011.86 1012.10 1012.31 1012.44 1012.55 1012.67 1012.74 1012.85 1012.67 1012.72 1012.85 1013.16 1013.43 1013.54 1013.50 1013.55 1013.61 1013.64 1013.66 1013.60 1013.48 1013.32 1013.15 1013.26 1013.39 1013.58 1013.61 1013.61 1013.53 1013.23 1012.99 1012.78 1012.61 1012.54 1012.58
1009.42 1009.63 1009.83 1010.11 1010.42 1010.77 1011.10 1011.52 1011.81 1011.97 1012.18 1012.43 1012.51 1012.62 1012.65 1012.95 1012.86 1012.73 1012.96 1013.22 1013.38 1013.46 1013.46 1013.39 1013.42 1013.41 1013.50 1013.41 1013.26 1013.22 1013.21 1013.18 1013.24 1013.30 1013.33 1013.31 1013.15 1012.86 1012.63 1012.48 1012.40 1012.26 1012.18
1009.49 1009.71 1009.87 1010.09 1010.41 1010.71 1010.99 1011.38 1011.76 1011.87 1012.09 1012.35 1012.50 1012.64 1012.73 1012.95 1013.08 1012.95 1012.98 1013.22 1013.49 1013.43 1013.44 1013.38 1013.41 1013.40 1013.44 1013.37 1013.24 1013.14 1013.08 1013.04 1013.07 1013.03 1012.94 1012.82 1012.69 1012.48 1012.28 1012.13 1012.03 1011.89 1011.74
1009.75 1009.80 1009.94 1010.12 1010.49 1010.77 1011.03 1011.20 1011.49 1011.86 1012.07 1012.26 1012.62 1012.74 1012.96 1013.15 1013.22 1013.14 1013.23 1013.34 1013.56 1013.54 1013.51 1013.51 1013.37 1013.32 1013.30 1013.25 1013.10 1013.05 1012.98 1012.88 1012.89 1012.81 1012.66 1012.42 1012.21 1012.02 1011.74 1011.58 1011.47 1011.36 1011.30
1009.86 1009.85 1009.95 1010.19 1010.41 1010.78 1011.01 1011.30 1011.54 1011.67 1012.04 1012.32 1012.66 1012.83 1013.06 1013.37 1013.25 1013.18 1013.32 1013.41 1013.49 1013.59 1013.48 1013.49 1013.37 1013.18 1013.15 1013.16 1013.09 1013.08 1012.99 1012.92 1012.85 1012.62 1012.40 1012.11 1011.86 1011.59 1011.35 1011.12 1011.00 1010.86 1010.74
1009.76 1009.80 1009.87 1010.15 1010.36 1010.66 1010.94 1011.36 1011.63 1011.82 1012.20 1012.40 1012.69 1013.03 1013.21 1013.39 1013.27 1013.21 1013.27 1013.36 1013.56 1013.64 1013.59 1013.46 1013.36 1013.29 1013.28 1013.27 1013.27 1013.10 1013.09 1012.95 1012.78 1012.54 1012.25 1011.96 1011.71 1011.34 1010.98 1010.68 1010.51 1010.36 1010.25
1009.33 1009.72 1009.82 1010.00 1010.13 1010.51 1010.91 1011.33 1011.78 1011.93 1012.25 1012.49 1012.79 1013.10 1013.21 1013.47 1013.47 1013.52 1013.49 1013.53 1013.69 1013.67 1013.69 1013.66 1013.67 1013.65 1013.69 1013.71 1013.54 1013.38 1013.17 1012.96 1012.77 1012.43 1012.12 1011.79 1011.51 1011.15 1010.77 1010.47 1010.15 1009.96 1009.76
1009.16 1009.22 1009.47 1009.86 1010.11 1010.39 1010.67 1011.18 1011.59 1012.01 1012.27 1012.56 1012.81 1013.13 1013.29 1013.52 1013.72 1013.65 1013.56 1013.54 1013.54 1013.77 1013.78 1013.88 1014.16 1014.10 1013.99 1013.91 1013.74 1013.50 1013.24 1013.05 1012.75 1012.39 1012.01 1011.64 1011.36 1011.00 1010.63 1010.35 1010.01 1009.71 1009.30
1009.11 1009.02 1009.14 1009.58 1009.88 1010.21 1010.71 1011.12 1011.50 1011.93 1012.09 1012.38 1012.78 1012.99 1013.19 1013.45 1013.99 1013.72 1013.51 1013.75 1013.81 1014.17 1014.38 1014.46 1014.53 1014.44 1014.36 1014.14 1013.91 1013.81 1013.55 1013.33 1012.98 1012.55 1012.20 1011.73 1011.37 1011.10 1010.74 1010.38 1010.08 1009.85 1009.57
1008.06 1008.40 1008.77 1009.24 1009.62 1010.06 1010.56 1011.14 1011.49 1011.69 1012.03 1012.47 1012.68 1012.85 1013.19 1013.52 1013.93 1014.03 1014.06 1014.05 1014.34 1014.75 1014.82 1014.83 1014.82 1014.82 1014.82 1014.52 1014.21 1013.88 1013.75 1013.43 1013.08 1012.73 1012.41 1012.08 1011.67 1011.41 1011.08 1010.68 1010.58 1010.28 1009.98
1007.39 1007.81 1008.27 1008.90 1009.38 1009.97 1010.45 1011.02 1011.41 1011.59 1011.90 1012.33 1012.71 1012.94 1013.30 1013.48 1013.91 1014.06 1014.38 1014.53 1015.07 1015.03 1014.97 1014.92 1014.89 1014.88 1014.92 1014.72 1014.40 1014.05 1013.79 1013.57 1013.30 1012.91 1012.65 1012.36 1012.09 1011.79 1011.51 1011.23 1010.98 1010.69 1010.32
1007.60 1007.60 1007.96 1008.56 1009.38 1009.95 1010.52 1010.89 1011.35 1011.56 1012.02 1012.54 1012.80 1013.09 1013.42 1013.69 1014.30 1014.41 1014.68 1015.06 1015.41 1015.17 1015.15 1015.26 1015.32 1015.26 1015.34 1015.13 1014.70 1014.12 1013.99 1013.73 1013.42 1013.07 1012.90 1012.67 1012.51 1012.31 1012.03 1011.69 1011.45 1011.12 1010.67
1007.56 1007.68 1008.07 1008.49 1009.28 1010.09 1010.63 1011.13 1011.62 1011.98 1012.41 1012.87 1013.02 1013.41 1013.84 1014.20 1014.76 1014.74 1015.17 1015.54 1015.54 1015.51 1015.69 1015.82 1015.71 1015.83 1015.91 1015.47 1014.89 1014.19 1013.96 1013.81 1013.63 1013.29 1013.28 1013.05 1012.87 1012.64 1012.46 1012.20 1011.95 1011.62 1011.22
1007.72 1007.82 1008.31 1008.77 1009.49 1010.19 1010.70 1011.42 1012.16 1012.57 1013.16 1013.53 1013.72 1013.96 1014.21 1014.77 1015.13 1015.13 1015.50 1015.82 1015.82 1016.04 1016.31 1016.23 1016.19 1016.12 1016.12 1016.01 1015.21 1014.49 1014.03 1013.76 1013.70 1013.52 1013.48 1013.21 1013.05 1012.84 1012.67 1012.43 1012.19 1011.94 1011.52
1008.09 1008.13 1008.50 1009.00 1009.71 1010.03 1010.73 1011.57 1012.55 1013.19 1014.02 1014.20 1014.49 1014.55 1014.55 1015.21 1015.42 1015.53 1015.99 1016.27 1016.40 1016.65 1016.87 1016.78 1016.71 1016.70 1016.42 1016.15 1015.76 1014.94 1014.08 1013.79 1013.66 1013.49 1013.44 1013.27 1013.00 1012.88 1012.72 1012.43 1012.26 1011.91 1011.65
1008.08 1008.36 1008.75 1009.15 1009.67 1010.05 1010.47 1011.32 1012.24 1013.42 1014.39 1014.68 1015.06 1015.09 1015.08 1015.61 1015.74 1016.00 1016.37 1016.70 1016.88 1017.03 1017.13 1017.32 1017.34 1017.24 1017.05 1016.68 1016.67 1016.12 1015.58 1014.63 1013.93 1013.19 1013.38 1013.29 1013.17 1013.05 1012.64 1012.41 1012.22 1011.85 1011.60
1008.17 1008.35 1008.78 1009.33 1009.81 1010.17 1010.77 1011.62 1012.77 1013.86 1014.53 1015.26 1015.53 1015.50 1015.92 1016.00 1016.18 1016.38 1016.68 1016.98 1017.27 1017.39 1017.64 1017.70 1017.69 1017.71 1017.76 1017.22 1017.05 1017.05 1016.67 1016.41 1015.33 1013.81 1013.45 1013.40 1013.23 1013.20 1012.98 1012.68 1012.21 1011.76 1011.53
1008.08 1008.31 1008.80 1009.35 1009.84 1010.41 1010.82 1011.56 1012.43 1013.54 1014.67 1015.35 1015.55 1016.00 1016.36 1016.33 1016.56 1016.73 1017.02 1017.30 1017.53 1017.76 1017.82 1017.84 1017.80 1017.84 1017.84 1017.97 1017.44 1017.24 1017.32 1017.28 1016.67 1014.93 1013.99 1013.52 1013.49 1013.25 1012.91 1012.50 1011.98 1011.68 1011.29
1008.03 1008.36 1008.90 1009.39 1009.89 1010.50 1011.00 1011.55 1012.56 1013.69 1014.54 1015.21 1015.82 1016.33 1016.52 1016.84 1016.94 1017.19 1017.37 1017.51 1017.75 1017.99 1018.03 1017.99 1017.97 1017.94 1017.95 1018.07 1018.05 1017.84 1017.46 1017.07 1016.88 1016.86 1014.78 1013.61 1013.30 1013.01 1012.68 1012.19 1011.82 1011.31 1010.97
1008.03 1008.47 1009.02 1009.54 1010.20 1010.65 1011.21 1012.04 1012.62 1013.64 1014.69 1015.58 1016.24 1016.55 1016.96 1017.19 1017.40 1017.56 1017.66 1017.77 1017.91 1018.11 1018.14 1018.11 1018.11 1018.09 1018.12 1018.07 1018.06 1018.00 1017.87 1017.79 1017.39 1017.13 1016.02 1014.84 1013.89 1012.88 1012.51 1012.05 1011.45 1011.05 1010.60
Thickness
5756 5759 5758 5755 5751 5748 5745 5743 5740 5738 5736 5734 5732 5731 5730 5729 5727 5726 5725 5724 5724 5723 5722 5723 5723 5723 5724 5723 5723 5723 5722 5721 5720 5719 5719 5718 5719 5719 5720 5717 5717 5715 5712
5763 5758 5757 5754 5750 5746 5742 5741 5737 5735 5733 5731 5730 5729 5728 5726 5724 5723 5722 5721 5722 5721 5719 5718 5718 5718 5719 5719 5719 5718 5718 5718 5717 5718 5716 5715 5715 5714 5716 5715 5716 5713 5711
5760 5756 5753 5750 5746 5744 5740 5737 5734 5731 5730 5730 5728 5726 5724 5725 5723 5720 5720 5720 5720 5719 5717 5715 5715 5715 5715 5716 5715 5714 5714 5715 5714 5715 5713 5712 5710 5710 5712 5713 5712 5709 5708
5757 5754 5750 5746 5743 5740 5737 5733 5730 5728 5727 5727 5726 5726 5723 5722 5721 5718 5718 5718 5717 5716 5716 5714 5711 5711 5712 5712 5712 5711 5711 5710 5710 5709 5708 5707 5706 5706 5708 5708 5707 5706 5705
5753 5751 5748 5744 5740 5738 5735 5732 5728 5725 5724 5724 5723 5722 5722 5721 5719 5719 5718 5716 5715 5714 5714 5712 5710 5707 5708 5708 5708 5708 5708 5706 5706 5704 5702 5702 5701 5701 5703 5704 5703 5703 5702
5750 5748 5744 5741 5737 5735 5734 5731 5726 5724 5721 5722 5722 5720 5719 5719 5717 5717 5717 5716 5712 5711 5711 5709 5707 5706 5704 5704 5704 5705 5704 5703 5701 5699 5698 5697 5697 5697 5696 5699 5699 5699 5698
5747 5745 5741 5737 5735 5732 5731 5729 5725 5723 5721 5721 5720 5719 5718 5715 5717 5715 5714 5711 5708 5707 5707 5706 5704 5703 5701 5701 5701 5701 5701 5699 5697 5695 5694 5693 5693 5693 5694 5695 5695 5697 5696
5744 5741 5738 5735 5732 5730 5729 5725 5723 5722 5721 5719 5718 5717 5716 5712 5712 5712 5710 5707 5705 5703 5702 5702 5701 5700 5697 5697 5697 5697 5695 5694 5693 5692 5691 5690 5691 5691 5691 5693 5693 5693 5693
5740 5738 5735 5732 5729 5727 5727 5724 5721 5721 5719 5717 5716 5714 5714 5710 5709 5710 5709 5705 5701 5701 5699 5699 5697 5695 5693 5692 5692 5691 5690 5689 5688 5688 5688 5688 5688 5688 5689 5689 5689 5689 5689
5733 5734 5732 5729 5726 5724 5723 5722 5721 5718 5717 5715 5712 5711 5709 5707 5706 5706 5704 5702 5699 5697 5696 5694 5694 5693 5690 5689 5688 5687 5686 5685 5683 5683 5683 5685 5685 5685 5686 5686 5686 5686 5686
5728 5730 5729 5726 5723 5721 5720 5718 5717 5718 5715 5712 5709 5708 5705 5703 5704 5704 5701 5699 5697 5693 5692 5690 5689 5689 5687 5685 5684 5682 5681 5680 5678 5678 5679 5679 5680 5681 5681 5682 5681 5681 5681
5723 5725 5726 5724 5722 5719 5717 5714 5714 5713 5710 5709 5707 5703 5701 5700 5701 5699 5697 5695 5690 5688 5686 5685 5684 5683 5682 5680 5678 5677 5675 5674 5673 5673 5673 5673 5673 5674 5675 5676 5676 5676 5675
5724 5721 5722 5721 5719 5716 5713 5711 5709 5709 5705 5704 5702 5698 5698 5695 5695 5692 5692 5690 5685 5682 5681 5679 5677 5675 5673 5671 5670 5669 5668 5667 5666 5667 5667 5667 5667 5667 5669 5670 5671 5671 5672
5718 5720 5719 5717 5716 5714 5710 5708 5706 5704 5701 5699 5697 5694 5694 5691 5688 5687 5687 5684 5680 5676 5673 5670 5667 5666 5665 5663 5662 5661 5660 5659 5660 5660 5660 5661 5661 5662 5663 5663 5664 5665 5667
5714 5717 5717 5715 5713 5711 5707 5704 5703 5700 5698 5695 5692 5691 5689 5687 5682 5682 5682 5676 5674 5666 5664 5661 5659 5659 5658 5656 5655 5653 5652 5652 5653 5654 5654 5655 5656 5656 5657 5657 5657 5657 5658
5716 5718 5715 5712 5710 5707 5703 5700 5697 5695 5693 5690 5689 5688 5684 5681 5676 5674 5672 5669 5664 5658 5656 5654 5652 5651 5649 5648 5647 5646 5645 5645 5646 5646 5646 5646 5646 5646 5646 5647 5646 5647 5647
5715 5714 5714 5710 5708 5703 5700 5695 5693 5691 5689 5686 5683 5681 5677 5675 5670 5668 5663 5660 5654 5652 5650 5648 5646 5645 5641 5639 5638 5638 5638 5637 5636 5637 5637 5637 5636 5634 5634 5634 5634 5635 5636
5709 5710 5710 5709 5702 5698 5694 5692 5688 5686 5683 5679 5678 5675 5671 5669 5661 5660 5656 5651 5645 5645 5643 5640 5636 5635 5630 5628 5628 5629 5628 5628 5627 5627 5626 5625 5623 5622 5622 5621 5620 5620 5621
5703 5703 5702 5702 5698 5692 5688 5684 5680 5677 5674 5671 5671 5668 5664 5659 5652 5652 5646 5640 5638 5637 5633 5629 5627 5623 5619 5618 5620 5621 5620 5619 5617 5616 5615 5613 5611 5610 5608 5607 5605 5605 5604
5697 5697 5695 5694 5690 5684 5680 5676 5670 5667 5663 5661 5660 5659 5656 5649 5643 5642 5637 5632 5630 5626 5620 5617 5614 5612 5609 5606 5609 5611 5611 5612 5609 5607 5603 5601 5599 5598 5595 5594 5591 5589 5588
5688 5689 5689 5686 5681 5679 5674 5668 5662 5658 5651 5651 5648 5648 5648 5638 5634 5632 5626 5621 5618 5612 5607 5604 5601 5597 5596 5596 5597 5599 5602 5602 5600 5598 5593 5590 5587 5584 5580 5578 5574 5573 5571
5681 5682 5681 5679 5675 5673 5671 5665 5659 5650 5643 5641 5638 5638 5636 5628 5625 5620 5615 5610 5605 5601 5597 5592 5587 5585 5583 5583 5581 5581 5583 5586 5587 5589 5581 5578 5573 5569 5566 5561 5558 5555 5552
5675 5675 5674 5671 5668 5666 5663 5657 5649 5641 5636 5630 5628 5628 5622 5618 5613 5610 5604 5599 5594 5589 5583 5579 5576 5573 5569 5568 5566 5563 5560 5560 5569 5577 5575 5566 5562 5555 5551 5546 5544 5540 5536
5669 5669 5668 5664 5662 5659 5657 5652 5648 5640 5630 5624 5622 5616 5610 5607 5603 5598 5593 5588 5583 5577 5573 5570 5567 5563 5559 5553 5551 5548 5542 5537 5537 5550 5561 5557 5547 5543 5538 5534 5532 5526 5522
5662 5662 5659 5657 5655 5652 5649 5647 5639 5630 5624 5617 5611 5605 5601 5596 5592 5586 5582 5578 5572 5566 5563 5559 5555 5551 5547 5542 5536 5532 5529 5524 5518 5511 5529 5537 5534 5529 5526 5523 5517 5513 5507
5655 5655 5652 5650 5646 5644 5641 5635 5632 5623 5615 5607 5600 5596 5590 5585 5580 5575 5571 5567 5562 5557 5553 5549 5545 5540 5534 5528 5523 5516 5512 5506 5502 5494 5498 5503 5505 5513 5507 5506 5502 5494 5487